Theta_e
309 308 310 310 307 309 308 309 311 309 308 309 308 308 306 302 301 300 299 300 301 302 302 304 306 308 311 315 318 320 321 321 320 319 320 319 319 317 315 313 313 312 312 312
307 308 309 308 307 308 309 309 309 308 307 308 308 309 304 301 301 300 299 299 299 300 301 302 304 306 308 310 311 313 315 316 316 315 313 313 311 307 305 304 304 304 304 305
309 310 307 308 307 308 307 308 308 311 310 308 309 310 305 300 299 299 298 299 299 299 300 301 302 303 304 305 306 306 306 306 305 305 305 304 303 302 301 301 301 300 300 300
308 308 310 308 309 309 310 306 308 309 311 313 308 316 306 302 300 298 297 298 298 297 297 298 298 298 299 300 301 301 301 301 301 301 300 300 300 299 297 295 294 294 294 294
312 309 309 311 312 308 312 307 307 309 310 308 308 310 307 302 302 299 297 297 297 296 295 295 295 296 296 296 297 298 298 298 297 298 298 297 297 295 293 293 293 293 293 292
311 309 309 310 308 308 305 307 306 305 306 310 309 311 310 304 304 300 297 297 296 295 294 294 294 295 295 295 296 296 296 295 294 294 294 294 293 292 292 292 292 291 291 290
311 310 308 307 307 306 306 308 311 312 311 313 307 308 311 304 302 301 298 297 296 295 294 294 294 293 294 294 294 294 294 294 293 293 292 292 292 291 291 291 290 290 290 290
315 316 309 306 308 309 305 308 312 313 313 313 308 311 311 301 301 301 299 298 296 294 294 293 293 293 293 293 293 293 293 293 291 291 291 291 291 291 290 290 290 289 289 289
313 314 307 305 305 307 307 308 308 308 295 307 309 309 302 300 299 299 297 296 295 294 294 293 292 292 292 292 292 291 291 291 291 291 290 290 290 290 289 289 288 288 287 287
311 314 308 306 307 306 307 306 310 308 309 309 310 309 311 302 300 298 297 296 296 295 294 293 293 292 291 291 291 291 290 291 290 290 290 289 289 288 288 287 287 286 285 285
308 311 309 307 307 308 307 308 307 308 309 310 308 309 304 304 300 298 298 296 296 296 295 295 294 292 292 291 290 290 290 290 289 289 289 288 287 287 286 286 286 286 285 285
308 310 309 307 305 304 306 307 308 312 308 304 306 308 300 301 301 299 298 297 297 297 296 296 295 292 291 290 290 290 289 289 289 288 288 287 287 287 286 286 286 286 285 285
308 312 312 312 308 305 307 305 306 305 305 304 309 309 300 300 299 299 298 298 297 296 296 295 293 292 292 291 290 290 290 289 288 288 287 287 287 287 287 286 285 285 284 284
309 310 312 318 312 306 307 306 305 308 304 306 310 306 303 300 300 298 298 298 297 297 297 296 294 293 292 291 290 290 289 289 288 288 287 287 287 287 287 286 285 284 283 283
311 312 306 304 303 305 305 304 305 306 308 311 307 308 305 303 301 300 300 298 298 298 297 297 295 294 292 291 290 289 289 289 288 288 287 288 287 287 286 285 284 283 283 282
304 311 309 307 301 302 305 304 303 305 305 305 303 305 302 303 302 300 300 298 297 298 298 297 296 295 293 291 291 290 289 289 288 288 288 287 287 287 285 284 283 283 282 282
305 304 307 309 298 302 307 304 303 303 302 305 306 307 295 296 298 300 300 299 300 300 299 299 298 295 293 291 291 290 289 289 288 288 288 287 287 286 284 283 282 282 281 281
304 304 304 299 299 306 301 291 295 304 302 301 296 294 296 298 298 300 301 302 301 300 298 297 296 294 291 291 290 289 289 289 288 288 287 287 286 284 283 282 281 281 280 280
298 301 297 301 303 301 302 291 293 296 298 299 301 295 293 293 295 295 299 299 298 296 296 295 293 291 290 290 289 289 289 288 288 287 287 286 285 283 282 281 280 280 279 279
296 297 307 294 303 305 297 288 290 292 295 291 296 292 290 290 293 292 295 296 295 294 294 292 290 289 289 289 289 289 288 288 287 287 286 285 283 281 281 280 280 279 278 278
297 297 303 298 303 299 293 288 290 295 298 288 291 293 290 290 294 294 293 294 293 293 291 289 289 289 289 289 288 288 288 287 287 286 286 283 281 281 280 280 279 278 278 277
296 298 295 294 297 301 289 288 292 293 291 292 291 293 293 294 293 292 291 291 292 291 290 289 289 289 289 289 288 288 287 287 286 286 284 281 281 280 279 279 278 277 276 276
293 294 294 295 296 289 290 292 293 293 293 292 293 294 294 293 292 291 291 291 291 290 290 289 289 289 289 288 288 288 287 286 286 285 282 281 280 279 278 278 277 276 276 275
286 287 289 290 289 289 290 292 292 293 294 294 293 293 292 292 292 291 291 290 290 290 289 289 289 289 289 288 288 287 286 286 285 283 281 280 280 279 278 277 276 275 275 274
288 287 285 285 288 289 291 292 294 293 292 292 292 292 292 292 291 291 290 290 290 289 289 289 289 289 289 288 287 286 286 285 284 281 280 280 279 278 277 276 275 275 274 273
287 287 288 288 290 291 292 293 293 293 292 292 292 292 291 291 291 291 290 290 290 289 289 289 289 289 288 288 287 286 285 285 282 280 279 279 278 277 276 276 275 274 273 272
Wind_Speed
4 4 9 16 10 4 6 4 5 4 3 4 7 6 1 6 9 11 12 13 13 14 14 13 13 15 17 18 19 21 22 24 20 19 15 12 8 6 5 7 5 3 3 1
3 9 11 5 6 4 3 4 5 4 4 4 6 8 1 4 2 6 14 15 18 20 21 21 20 21 21 22 21 20 19 17 16 15 18 18 19 19 19 17 15 13 11 10
9 4 10 7 5 6 5 6 5 7 2 3 2 5 5 3 7 9 12 16 19 21 24 25 26 28 28 28 28 28 27 27 26 24 23 22 20 20 18 16 14 14 13 12
7 5 6 5 5 8 6 9 7 6 4 4 1 5 3 4 5 6 12 16 18 20 22 24 25 26 27 28 27 26 26 25 24 21 19 16 16 14 17 15 14 13 12 12
6 7 5 5 8 7 5 6 7 4 3 1 2 1 3 6 6 8 14 18 19 20 22 24 25 26 26 25 24 23 22 21 20 16 14 13 14 16 15 13 10 11 11 12
3 1 6 8 2 7 9 6 5 4 3 3 10 9 4 6 7 11 16 22 23 23 22 23 24 24 23 20 19 17 16 17 15 14 14 14 15 14 11 11 10 11 12 13
0 4 4 5 6 3 3 6 1 1 1 6 1 4 7 5 4 17 25 31 29 26 25 25 24 22 21 18 15 14 12 14 13 12 12 13 13 12 12 13 14 15 17 19
7 6 11 7 8 8 8 7 5 7 4 2 2 6 5 1 3 15 31 35 31 28 26 25 23 22 19 16 13 11 10 10 10 9 10 11 11 11 12 12 13 13 15 17
7 6 1 3 4 8 6 6 4 5 2 2 4 4 1 3 3 19 25 31 33 30 28 25 23 21 19 16 13 10 8 8 7 7 7 5 6 6 7 8 10 12 14 16
6 2 2 3 5 2 4 8 3 1 2 4 3 4 5 7 10 11 20 29 36 33 29 27 25 23 20 16 13 11 8 6 4 4 5 7 8 9 10 11 14 16 18 22
6 3 1 4 6 10 4 4 2 4 4 5 1 5 4 8 15 19 26 32 41 39 35 30 26 24 21 18 15 12 9 4 1 3 6 8 10 11 15 18 20 21 24 26
9 3 4 8 2 1 2 7 7 5 5 2 2 6 1 3 16 23 28 36 43 41 36 31 27 26 23 20 18 13 9 4 2 3 7 11 13 15 17 20 22 24 26 27
9 4 2 4 1 2 6 5 4 5 3 7 5 5 2 5 14 25 31 37 42 42 36 32 29 27 25 23 19 15 11 6 2 6 9 12 14 16 19 21 23 24 27 29
8 5 8 14 4 5 7 6 6 7 4 6 12 4 4 5 10 18 27 32 42 42 37 33 31 27 26 23 20 17 12 7 5 8 10 13 16 19 21 23 25 28 31 34
5 7 4 2 3 3 1 4 9 9 11 9 5 10 7 12 14 28 35 31 39 42 40 36 33 29 27 25 23 19 15 11 9 10 12 16 19 21 23 25 27 30 33 37
2 2 3 4 2 3 4 6 6 5 1 4 3 10 5 10 16 17 29 35 38 42 40 35 33 29 30 27 23 19 17 14 13 14 16 18 21 23 24 26 29 32 37 41
6 5 2 3 3 3 5 8 10 6 5 8 10 13 5 5 10 24 29 34 40 40 34 32 32 32 29 25 22 20 19 18 18 18 18 20 22 23 25 28 32 37 41 42
6 4 2 3 2 3 3 3 2 11 4 7 1 4 9 8 14 19 23 33 32 28 26 28 27 25 23 22 21 23 23 22 20 20 20 22 23 24 27 31 36 38 40 41
2 5 3 4 4 4 2 6 7 8 9 10 11 6 7 7 8 8 20 24 20 19 20 21 20 20 22 22 23 24 24 23 22 21 21 23 24 25 30 35 37 38 40 41
1 3 5 3 5 7 5 3 8 4 4 7 14 7 11 13 4 4 17 17 17 16 18 22 21 20 20 22 24 25 25 24 23 22 22 22 23 28 33 36 37 39 39 39
3 1 8 5 5 6 5 6 7 6 5 5 12 17 22 5 7 7 14 18 18 21 24 23 18 17 16 20 24 25 25 24 23 21 21 21 25 29 32 35 35 36 35 36
7 8 4 2 2 8 12 6 9 5 5 10 14 20 27 18 13 12 11 13 20 24 26 23 19 17 17 21 23 25 25 23 21 20 19 21 26 29 31 33 33 32 32 34
3 6 5 8 6 1 29 5 16 12 13 14 16 16 15 17 14 13 11 12 17 24 26 22 18 18 20 22 24 25 24 22 20 19 19 23 26 28 30 31 30 31 31 33
4 4 3 3 3 4 24 16 15 16 17 16 17 17 14 13 17 19 16 16 19 25 26 21 19 21 24 25 26 26 24 21 20 18 20 22 25 27 27 28 28 29 30 31
4 8 5 1 3 3 15 29 23 20 20 14 14 15 13 16 20 22 19 19 22 27 27 24 22 24 26 28 28 26 23 21 20 19 20 21 24 26 26 26 26 27 27 27
7 6 5 5 14 13 14 26 21 24 26 24 20 19 16 17 22 23 20 19 22 23 26 28 26 26 27 28 28 26 23 21 20 20 20 20 22 24 25 27 27 20 23 22
Wind_Direction
163 128 207 204 195 139 143 180 193 234 243 179 229 242 28 102 117 131 125 123 116 108 104 109 113 115 116 117 116 115 117 115 121 125 132 141 154 141 133 112 106 99 93 113
85 223 220 138 154 165 156 168 232 280 228 172 254 254 339 27 86 151 143 132 124 117 116 112 113 116 119 118 117 119 114 117 116 120 114 115 112 105 98 93 92 84 77 72
181 200 168 144 143 160 206 188 205 222 358 235 322 252 206 56 109 138 143 137 131 126 120 116 113 109 110 112 113 113 111 110 106 103 104 106 103 101 99 88 79 68 58 51
235 209 140 157 184 175 224 204 180 183 139 234 125 283 236 168 150 156 155 151 141 134 126 121 116 114 110 107 107 106 105 102 100 102 105 105 98 89 79 70 64 56 47 38
225 160 167 178 212 153 235 145 162 144 171 88 219 283 243 140 204 190 179 165 153 144 136 130 124 116 111 110 110 109 110 108 108 109 101 92 83 78 76 69 55 44 34 24
246 177 160 191 102 164 146 83 62 67 113 248 209 188 228 191 196 172 180 173 163 156 148 138 130 125 122 116 112 111 108 103 98 92 86 78 76 78 68 57 39 32 22 14
258 210 193 152 97 67 155 123 90 324 224 230 67 180 254 185 177 174 174 177 171 166 158 150 143 137 130 126 120 113 104 101 94 84 76 67 59 50 36 26 17 7 360 354
182 267 169 190 174 174 184 167 172 205 200 230 112 226 253 4 245 183 176 175 172 170 166 160 154 147 142 136 131 124 117 105 97 82 66 50 36 21 12 3 354 347 342 339
178 266 162 165 152 145 181 197 159 108 35 58 217 272 227 96 55 155 167 175 178 176 173 169 164 159 155 151 145 141 134 117 101 77 60 41 13 351 339 334 331 333 331 327
212 197 228 174 115 29 174 154 102 16 188 253 264 263 237 199 183 170 173 180 184 182 180 178 174 170 166 163 163 161 161 141 126 67 17 358 344 334 329 332 335 339 335 334
156 172 255 124 216 176 149 173 86 137 163 188 235 251 215 197 179 183 186 186 187 186 186 184 182 178 175 174 175 175 183 158 109 4 349 350 349 343 342 339 334 331 329 327
190 122 177 211 297 310 195 189 167 170 209 217 151 259 352 234 177 177 185 191 194 192 189 187 189 186 181 184 188 184 192 193 246 337 350 347 337 330 327 324 322 321 320 319
173 184 134 319 323 305 211 196 139 99 84 191 158 256 59 108 159 187 187 197 199 196 193 192 193 194 193 196 195 198 206 213 271 321 325 323 319 317 317 315 312 312 313 314
122 164 208 222 187 142 182 181 178 171 174 173 226 229 233 190 185 193 203 200 203 199 198 199 200 200 201 202 204 210 215 222 270 299 305 311 313 313 313 312 312 313 315 317
114 205 165 90 48 67 128 156 179 197 208 202 200 221 204 199 203 205 205 200 202 202 204 207 207 206 205 205 208 213 219 231 264 293 298 307 309 311 310 310 311 314 316 316
44 162 136 148 41 44 303 223 201 230 17 261 177 259 187 205 200 191 205 200 200 203 207 210 214 212 211 210 214 220 226 238 258 282 294 302 304 305 307 309 312 314 315 316
148 134 121 202 34 63 294 222 198 189 190 195 218 240 169 198 204 203 203 202 203 205 208 217 219 215 212 215 221 226 233 243 258 274 287 295 302 307 310 313 315 317 318 318
142 118 90 139 128 216 260 24 14 217 202 204 154 212 187 200 206 220 213 199 201 204 218 220 215 209 210 214 221 229 236 247 258 269 284 299 307 310 313 316 317 318 318 318
4 135 145 162 204 331 226 193 171 169 244 207 212 193 181 156 164 207 201 206 219 223 217 210 205 207 214 219 226 234 242 248 257 272 290 304 308 312 315 317 318 318 318 318
40 2 194 159 181 205 240 238 174 124 277 218 208 166 161 149 169 228 203 205 206 207 204 197 199 205 214 224 233 239 244 250 261 275 293 305 310 315 317 318 319 319 318 318
144 164 216 191 216 275 198 184 150 120 238 176 199 186 164 182 191 159 172 192 201 202 196 191 198 213 229 234 237 240 246 252 264 281 298 305 311 314 316 316 317 317 318 317
166 168 194 103 125 259 151 108 167 189 149 173 172 179 189 192 171 167 169 185 198 199 199 205 219 232 241 237 238 242 248 257 271 287 297 304 311 315 317 317 319 318 318 318
233 186 179 187 209 192 176 166 197 177 174 178 175 177 182 191 196 192 201 214 215 212 211 218 234 243 241 240 239 244 253 264 277 289 297 305 312 315 317 317 318 319 321 321
247 168 184 98 219 224 203 210 196 200 191 196 192 186 197 218 219 211 216 221 219 211 213 225 239 242 243 244 244 247 255 266 277 282 294 304 312 316 317 318 319 321 323 323
184 134 142 289 273 246 231 220 217 213 218 211 209 216 230 233 224 217 223 224 224 221 223 233 246 248 250 246 245 248 256 266 270 279 292 304 312 316 318 318 321 322 323 325
184 160 163 209 203 197 225 224 222 231 235 234 238 240 248 249 234 227 233 238 236 234 233 238 244 247 248 245 244 248 255 261 265 276 288 302 311 315 318 319 318 320 318 321